Showing default

IRIS-F3, 62619

Orbit data source: Space-Track

IRIS-F3, 62619 is a payload satellite owned by NCKU (TW) in SSO that was launched on Tue, 14 Jan 2025 UTC via an FALCON 9 launch vehicle from the Air Force Western Test Range (AFWTR). Payload-class satellites include a variety of spacecraft equipped with specific instruments for various scientific and technological missions. These include communications satellites like Starlink; space stations such as the ISS; scientific satellites like the Hubble; Earth observation satellites from companies like Planet Labs, Umbra, and HawkEye 360; GPS; miniature CubeSats for education and research; and military/defense satellites.

Loading next visibility...
Identifier
62619, 2025-009L
Orbit
SSO
Country
Flag of TWTW / TWN
Related business
Manufacturer
NCKU
Mission
Operational Amateur Technology
Bus & Motor
CUBESAT 3U, Unknown motor
Mass
4 kg wet, 4 kg dry
Launch date (UTC)
2025-01-14 (9 months ago)
Launch vehicle
FALCON 9
Launch site
Air Force Western Test Range (AFWTR)
Object type
Payload
Rocket body
Debris
Shape & HBR
Box, 0.3 m
Radar Cross Section
0.800 m², Medium (>0.1 m² and < 1m²)

Expand to show TLE details & history
Last TLE update: 13 hours ago

TLE from 13 hours ago
0 IRIS-F3
1 62619U 25009L   25286.48826048  .00013440  00000-0  59892-3 0  9991
2 62619  97.4272   4.9669 0008369 108.8297 251.3848 15.21519228 41240
Epoch: 2025-10-13T11:43Z
TLE epoch observation values (Epoch: 2025-10-13T11:43:05.705Z)
Latitude
0.00005°
Longitude
166.9028°
Altitude
506.192 km
Speed
7.61 km/s
True Right ascension
00h 19m 52s
True Declination
0° 00' 00"
Sunlit
Object was in full shadow at epoch
Visualization orbit readout
Latitude
Unknown
Longitude
Unknown
Altitude
Unknown
Speed
Unknown
Apparent Right ascension
Unknown
Apparent Declination
Unknown
Sunlit
N/A
Visualization observer readout
Local Sidereal Time
18:50:41
Azimuth
Unknown
Elevation
Unknown
Doppler factor
Unknown
Orbital elements
Apogee altitude
503.977 km
Perigee altitude
492.467 km
Semi-major axis
6,876.359 km
Eccentricity
0.00084
Inclination
97.4272°
RAAN
4.9669°
Arg. of periapsis
108.8297°
True anomaly
251.29395°
Mean anomaly
251.3848°
Eccentric anomaly
251.33937°
Mean motion
3.80632 °/min
Orbital period
94.58 mins
BSTAR
0.00059892
Loading maneuver chart data...
Computing Atmospheric mass density...
Loading historical data...
Loading historical data...
Loading historical data...
Loading historical data...
Loading historical data...
Loading historical data...
Loading historical data...

Documentation

Showing up to 5 results
|